Zurück zum Katalog

CZ-6A DEB

AktivSSO
NORAD 56634·DEBRIS·🇨🇳 China

Gestartet Nov 11, 2022 von Taiyuan Satellite Launch Center

Loading…

Nächste Überflüge (nächste 24 Stunden)

TLE

AktuellSource: Space-Track

Epoche: Sep 13, 2026, 23:59 UTC

1 56634U 22151AFJ 26256.99932127  .00000127  00000-0  77947-4 0  9996
2 56634  98.7750 279.8995 0013359 131.6962 228.5361 14.21727991176240

Verfolge CZ-6A DEB in Echtzeit mit AllMySat

Download on the App Store